Home   Weather   Oberursel (Taunus)   Past weeks

Flag for Germany Past Weather in Oberursel (Taunus), Hesse, Germany — Yesterday and Last 2 Weeks

43 °F

Partly cloudy.

Feels Like: 40 °F
Forecast: 42 / 49 °F
Wind: 5 mph from Southwest

Location: Frankfurt-M-Flughafen Airport

Current Time: Oct 22, 2016 at 12:09:19 AM

Latest Report: Oct 21, 2016 at 11:50 PM

Visibility: 5 mi

Pressure: 29.98 "Hg

Humidity: 100%

Dew Point: 43 °F

Location of Oberursel (Taunus)Location

Past Weather in Oberursel (Taunus) — Graph


Oberursel (Taunus) Temperature Yesterday

Maximum temperature yesterday: 50 °F (at 3:50 PM)
Minimum temperature yesterday: 41 °F (at 4:20 AM)
Average temperature yesterday: 45 °F

High & Low Weather Summary for the Past Weeks

High64 °F (Oct 16, 3:50 PM)100% (Oct 9, 3:50 AM)30.27 "Hg (Oct 9, 3:50 AM)
Low39 °F (Oct 13, 2:20 AM)51% (Oct 11, 1:50 PM)29.65 "Hg (Oct 14, 7:20 PM)
Average49 °F83%30.06 "Hg
* Reported Oct 6 10:20 PM — Oct 21 10:50 PM, Oberursel (Taunus), Weather by CustomWeather, © 2016

Note: Actual official high and low records may vary slightly from our data, if they occured in-between our weather recording intervals... More about our weather records


Oberursel (Taunus) Weather History for the Previous 24 Hours

Scroll right to see more
Time TempWeatherWind HumidityBarometerVisibility
10:50 PM
Fri, Oct 21
43 °FPartly cloudy.6 mph93%29.98 "HgN/A
10:20 PM45 °FPartly cloudy.3 mph87%29.98 "HgN/A
9:50 PM43 °FPartly cloudy.5 mph93%29.98 "HgN/A
9:20 PM43 °FPassing clouds.6 mph93%29.98 "HgN/A
8:50 PM43 °FPassing clouds.6 mph93%29.98 "HgN/A
8:20 PM45 °FPassing clouds.3 mph87%29.98 "HgN/A
7:50 PM45 °FPassing clouds.6 mph87%29.98 "HgN/A
7:20 PM45 °FPassing clouds.6 mph93%29.98 "HgN/A
6:50 PM46 °FPassing clouds.7 mph82%29.98 "HgN/A
6:20 PM48 °FPartly sunny.7 mph76%29.98 "HgN/A
5:50 PM48 °FPartly sunny.8 mph76%29.98 "HgN/A
5:20 PM48 °FBroken clouds.6 mph82%29.98 "HgN/A
4:50 PM48 °FPartly sunny.7 mph76%29.98 "HgN/A
4:20 PM48 °FScattered showers. Broken clouds.7 mph82%29.98 "HgN/A
3:50 PM50 °FScattered showers. Broken clouds.9 mph76%29.98 "HgN/A
3:20 PM48 °FBroken clouds.8 mph76%29.98 "HgN/A
2:50 PM48 °FBroken clouds.8 mph82%29.98 "HgN/A
2:20 PM48 °FBroken clouds.7 mph82%29.98 "HgN/A
1:50 PM48 °FBroken clouds.6 mph82%29.98 "HgN/A
1:20 PM48 °FBroken clouds.7 mph82%29.98 "HgN/A
12:50 PM48 °FPartly sunny.7 mph82%29.98 "HgN/A
12:20 PM48 °FBroken clouds.6 mph87%29.98 "HgN/A
11:50 AM48 °FPartly sunny.5 mph87%29.98 "HgN/A
11:20 AM46 °FBroken clouds.5 mph93%29.98 "HgN/A
10:50 AM46 °FBroken clouds.5 mph93%29.98 "HgN/A
10:20 AM45 °FBroken clouds.3 mph93%29.98 "HgN/A
9:50 AM45 °FBroken clouds.5 mph93%29.95 "HgN/A
9:20 AM45 °FBroken clouds.5 mph93%29.95 "HgN/A
8:50 AM43 °FPartly sunny.5 mph100%29.95 "HgN/A
8:20 AM43 °FBroken clouds.3 mph100%29.95 "HgN/A
7:50 AM43 °FPartly cloudy.5 mph100%29.95 "HgN/A
7:20 AM43 °FLight rain. Passing clouds.5 mph93%29.95 "HgN/A
6:50 AM43 °FLight rain. Partly cloudy.5 mph93%29.95 "HgN/A
6:20 AM41 °FPartly cloudy.3 mph100%29.95 "HgN/A
5:50 AM41 °FPartly cloudy.2 mph100%29.92 "HgN/A
5:20 AM41 °FPartly cloudy.3 mph100%29.92 "HgN/A
4:50 AM41 °FPassing clouds.5 mph100%29.92 "HgN/A
4:20 AM41 °FPassing clouds.5 mph100%29.92 "HgN/A
3:50 AM43 °FPassing clouds.2 mph100%29.92 "HgN/A
3:20 AM43 °FPassing clouds.2 mph100%29.92 "HgN/A
2:50 AM43 °FPassing clouds.2 mph100%29.92 "HgN/A
2:20 AM43 °FClear.3 mph100%29.92 "Hg10 mi
1:50 AM43 °FPassing clouds.3 mph100%29.92 "HgN/A
1:20 AM43 °FPassing clouds.3 mph93%29.92 "HgN/A
12:50 AM43 °FLight fog.6 mph93%29.92 "HgN/A
12:20 AM45 °FPassing clouds.5 mph93%29.92 "HgN/A
Weather by CustomWeather, © 2016

See weather overviewHow to use our weather pages